Regional Weather Roundup
Issued by NWS

Home | Current Version | Previous Version | Graphics & Text | Print | Product List | Glossary On
Versions: 1 2 3 4 5 6 7 8 9 10 11 12 13 14 15 16 17 18 19 20 21 22 23 24 25 26 27 28 29 30 31 32 33 34 35 36 37 38 39 40 41 42 43 44 45 46 47 48 49 50
000
ASUS45 KABQ 192001
RWRNM
NEW MEXICO REGIONAL WEATHER ROUNDUP
NATIONAL WEATHER SERVICE ALBUQUERQUE NM
100 PM MST SUN FEB 19 2017

NOTE: "FAIR" MEANS FEW OR NO CLOUDS BELOW 12,000 FEET AGL WITH NO
       SIGNIFICANT WEATHER OR OBSTRUCTIONS TO VISION.

      THIS PRODUCT IS RELEASED AS TWO VERSIONS.  ONE VERSION NEAR
      THE TOP OF THE HOUR CONTAINING PRELIMINARY DATA FROM ALBUQUERQUE
      AND OTHER STATIONS.  A FINAL VERSION WITH ADDITIONAL DATA IS
      ISSUED ABOUT 10 MINUTES AFTER THE HOUR.

NMZ501-503-504-510>518-192100-
NORTHWEST PLATEAU/NORTHCENTRAL MOUNTAINS

CITY           SKY/WX    TMP DP  RH WIND       PRES   REMARKS
FARMINGTON     CLOUDY    48  25  40 W10       29.81F
LOS ALAMOS     FAIR      42  30  62 S9G16     29.84F
SANTA FE       FAIR      49  31  49 W14G22    29.83F
TAOS             N/A     45  27  49 W16G23    29.81F
ANGEL FIRE     FAIR      40  30  67 W25       29.81R WCI  29

$$
NMZ402-403-502-505>509-192100-
WESTCENTRAL MOUNTAINS/SOUTHWEST MOUNTAINS

CITY           SKY/WX    TMP DP  RH WIND       PRES   REMARKS
GALLUP         PTSUNNY   42  30  62 SW15      29.88F
GRANTS         CLOUDY    46  24  42 W12G17    29.88F
SILVER CITY    PTSUNNY   47  33  57 W15       29.95S

$$
NMZ407-409-411-412-192100-
SOUTHERN DESERTS

CITY           SKY/WX    TMP DP  RH WIND       PRES   REMARKS
DEMING         CLOUDY    54  34  46 W21G29    29.95F
LAS CRUCES     CLOUDY    52  32  47 W15G21    29.95F
HOLLOMAN AFB   FAIR      55  31  39 W10       29.95S
ALAMOGORDO     PTSUNNY   54  28  37 W13G23    29.93R
T OR C         CLOUDY    53  26  35 W8        29.89F

$$
NMZ519>523-192100-
CENTRAL VALLEYS/CENTRAL HIGHLANDS

CITY           SKY/WX    TMP DP  RH WIND       PRES   REMARKS
ALBUQUERQUE    PTSUNNY   49  35  58 S5        29.86F
DOUBLE EAGLE   PTSUNNY   48  34  57 SW17      29.86F
MORIARTY ARPT  FAIR      52  25  35 SW9G21    29.85F
CLINES CORNERS PTSUNNY   45  27  49 W17       29.85F
BELEN          FAIR      52  26  37 W8        29.86F
SOCORRO        CLOUDY    47  34  60 SW6       29.89F

$$
NMZ524>526-539-540-192100-
SOUTHCENTRAL MOUNTAINS

CITY           SKY/WX    TMP DP  RH WIND       PRES   REMARKS
RUIDOSO        FAIR      45  19  36 SW28G36   29.89F

$$
NMZ527>531-192100-
NORTHEAST HIGHLANDS/NORTHEAST PLAINS

CITY           SKY/WX    TMP DP  RH WIND       PRES   REMARKS
LAS VEGAS      FAIR      48  25  40 SW20G31   29.81F
RATON          FAIR      51  29  42 S21G26    29.75F
CLAYTON        PTSUNNY   55  41  59 S16       29.77F

$$
NMZ532>537-192100-
EASTCENTRAL PLAINS

CITY           SKY/WX    TMP DP  RH WIND       PRES   REMARKS
TUCUMCARI      FAIR      60  35  39 SW17      29.79F
CANNON AFB     CLOUDY    57  41  54 SW9       29.82R
CLOVIS AIRPORT CLOUDY    55  41  58 S9        29.83R

$$
NMZ028-029-538-192100-
SOUTHEAST PLAINS

CITY           SKY/WX    TMP DP  RH WIND       PRES   REMARKS
ROSWELL        FAIR      61  23  23 SW17G24     N/A
ARTESIA        FAIR      59  28  31 SW22G29   29.84F
CARLSBAD       FAIR      60  31  33 SW12      29.84F
HOBBS          MOSUNNY   59  32  36 S15G25    29.84F


$$




USA.gov is the U.S. government's official web portal to all federal, state and local government web resources and services.